User: anonymous   Login
Location: Unspecified
(0.0000°N, 0.0000°E)
Time: 07:14:51
(UTC+00:00)
Language:

Amsat-Oscar-6 - Orbit

View from above orbital plane
View from above orbital plane
View from above satellite
View from above satellite

Ground track
Ground track

The orbit data is extracted from the following two-line orbital elements,

1  6236U 72082B   17178.86738128 -.00000034 +00000-0 +68742-4 0  9992
2  6236 101.7102 143.9175 0003804 304.1671 083.3328 12.53137637044742
Epoch (UTC): 27 June 2017 20:49:01
Eccentricity: 0.0003804
inclination: 101.7102°
perigee height: 1448 km
apogee height: 1454 km
right ascension of ascending node: 143.9175°
argument of perigee: 304.1671°
revolutions per day: 12.53137637
mean anomaly at epoch: 83.3328°
orbit number at epoch: 4474

The dashed part of the orbit path shows where the satellite is in the earth's shadow,  

DLR